Hourly Weather Bol'shoe

Today, 17 June, Thursday

Time Temperature Precipitation Wind Pressure Humidity
00:00 +11°C° 0 mm 3 mps 748 mmHg 61%
01:00 +10°C° 0 mm 3 mps 749 mmHg 62%
02:00 +10°C° 0 mm 3 mps 749 mmHg 63%
03:00 +9°C° 0 mm 3 mps 750 mmHg 66%
04:00 +10°C° 0 mm 3 mps 750 mmHg 65%
05:00 +11°C° 0 mm 3 mps 750 mmHg 63%
06:00 +12°C° 0 mm 3 mps 751 mmHg 62%
07:00 +14°C° 0 mm 3 mps 751 mmHg 56%
08:00 +15°C° 0 mm 4 mps 751 mmHg 51%
09:00 +18°C° 0 mm 4 mps 752 mmHg 46%
10:00 +19°C° 0 mm 4 mps 752 mmHg 44%
11:00 +20°C° 0 mm 4 mps 752 mmHg 42%
12:00 +21°C° 0 mm 4 mps 752 mmHg 41%
13:00 +21°C° 0 mm 3 mps 752 mmHg 44%
14:00 +21°C° 0 mm 3 mps 752 mmHg 47%
15:00 +21°C° 0 mm 2 mps 752 mmHg 51%
16:00 +21°C° 0 mm 2 mps 752 mmHg 51%
17:00 +21°C° 0 mm 2 mps 752 mmHg 52%
18:00 +21°C° 0 mm 2 mps 753 mmHg 53%
19:00 +19°C° 0 mm 2 mps 753 mmHg 59%
20:00 +18°C° 0 mm 1 mps 753 mmHg 66%
21:00 +16°C° 0 mm 1 mps 753 mmHg 72%
22:00 +15°C° 0 mm 1 mps 754 mmHg 74%
23:00 +14°C° 0 mm 1 mps 754 mmHg 75%

Tomorrow, 18 June, Friday

Time Temperature Precipitation Wind Pressure Humidity
00:00 +13°C° 0 mm 1 mps 754 mmHg 76%
01:00 +13°C° 0 mm 1 mps 754 mmHg 77%
02:00 +13°C° 0 mm 1 mps 754 mmHg 77%
03:00 +12°C° 0 mm 1 mps 755 mmHg 77%
04:00 +14°C° 0 mm 1 mps 755 mmHg 75%
05:00 +15°C° 0 mm 2 mps 755 mmHg 73%
06:00 +16°C° 0 mm 2 mps 755 mmHg 71%
07:00 +18°C° 0 mm 2 mps 755 mmHg 64%
08:00 +20°C° 0 mm 3 mps 755 mmHg 57%
09:00 +22°C° 0 mm 3 mps 755 mmHg 49%
10:00 +24°C° 0 mm 3 mps 754 mmHg 47%
11:00 +25°C° 0 mm 4 mps 754 mmHg 44%
12:00 +26°C° 0 mm 4 mps 754 mmHg 41%
13:00 +27°C° 0 mm 4 mps 753 mmHg 41%
14:00 +27°C° 0 mm 4 mps 753 mmHg 41%
15:00 +28°C° 0 mm 5 mps 753 mmHg 41%
16:00 +27°C° 0 mm 4 mps 752 mmHg 45%
17:00 +27°C° 0 mm 4 mps 752 mmHg 49%
18:00 +26°C° 0 mm 3 mps 752 mmHg 53%
19:00 +24°C° 0 mm 3 mps 752 mmHg 60%
20:00 +22°C° 0 mm 3 mps 752 mmHg 67%
21:00 +20°C° 0 mm 3 mps 752 mmHg 74%
22:00 +19°C° 0 mm 3 mps 752 mmHg 75%
23:00 +18°C° 0 mm 3 mps 752 mmHg 76%

Day after tomorrow, 19 June, Saturday

Time Temperature Precipitation Wind Pressure Humidity
00:00 +17°C° 0 mm 3 mps 752 mmHg 76%
01:00 +17°C° 0 mm 3 mps 752 mmHg 78%
02:00 +16°C° 0 mm 3 mps 752 mmHg 81%
03:00 +16°C° 0 mm 3 mps 752 mmHg 83%
04:00 +17°C° 0 mm 3 mps 752 mmHg 80%
05:00 +18°C° 0 mm 3 mps 752 mmHg 77%
06:00 +19°C° 0 mm 3 mps 752 mmHg 75%
07:00 +21°C° 0 mm 4 mps 752 mmHg 68%
08:00 +23°C° 0 mm 4 mps 752 mmHg 61%
09:00 +26°C° 0 mm 4 mps 752 mmHg 55%
10:00 +27°C° 0 mm 5 mps 752 mmHg 51%
11:00 +28°C° 0 mm 5 mps 752 mmHg 47%
12:00 +29°C° 0 mm 5 mps 751 mmHg 43%
13:00 +30°C° 0 mm 5 mps 751 mmHg 41%
14:00 +30°C° 0 mm 5 mps 751 mmHg 40%
15:00 +32°C° 0 mm 5 mps 751 mmHg 38%
16:00 +30°C° 0 mm 4 mps 751 mmHg 41%
17:00 +30°C° 0 mm 4 mps 750 mmHg 44%
18:00 +29°C° 0 mm 3 mps 750 mmHg 46%
19:00 +27°C° 0 mm 3 mps 750 mmHg 55%
20:00 +25°C° 0 mm 3 mps 750 mmHg 63%
21:00 +23°C° 0 mm 2 mps 750 mmHg 71%
22:00 +21°C° 0 mm 2 mps 751 mmHg 70%
23:00 +20°C° 0 mm 2 mps 751 mmHg 69%

20 June, Sunday

Time Temperature Precipitation Wind Pressure Humidity
00:00 +20°C° 0 mm 2 mps 751 mmHg 67%
01:00 +19°C° 0 mm 2 mps 751 mmHg 70%
02:00 +19°C° 0 mm 2 mps 751 mmHg 72%
03:00 +18°C° 0 mm 2 mps 752 mmHg 75%
04:00 +19°C° 0 mm 2 mps 752 mmHg 75%
05:00 +19°C° 0 mm 2 mps 752 mmHg 74%
06:00 +20°C° 0 mm 2 mps 752 mmHg 74%
07:00 +23°C° 0 mm 2 mps 752 mmHg 67%
08:00 +25°C° 0 mm 3 mps 752 mmHg 60%
09:00 +27°C° 0 mm 3 mps 752 mmHg 53%
10:00 +28°C° 0 mm 3 mps 751 mmHg 49%
11:00 +29°C° 0 mm 3 mps 751 mmHg 45%
12:00 +30°C° 0 mm 4 mps 751 mmHg 42%
13:00 +30°C° 0 mm 4 mps 751 mmHg 40%
14:00 +32°C° 0 mm 4 mps 751 mmHg 39%
15:00 +32°C° 0 mm 4 mps 750 mmHg 38%
16:00 +31°C° 0 mm 3 mps 750 mmHg 42%
17:00 +30°C° 0 mm 3 mps 750 mmHg 46%
18:00 +30°C° 0 mm 3 mps 750 mmHg 50%
19:00 +28°C° 0 mm 3 mps 750 mmHg 58%
20:00 +26°C° 0 mm 3 mps 750 mmHg 66%
21:00 +24°C° 0 mm 3 mps 750 mmHg 75%
22:00 +22°C° 0 mm 3 mps 750 mmHg 75%
23:00 +21°C° 0 mm 3 mps 750 mmHg 76%

21 June, Monday

Time Temperature Precipitation Wind Pressure Humidity
00:00 +20°C° 0 mm 3 mps 750 mmHg 77%
01:00 +20°C° 0 mm 2 mps 750 mmHg 79%
02:00 +20°C° 0 mm 2 mps 750 mmHg 81%
03:00 +19°C° 0 mm 2 mps 750 mmHg 82%
04:00 +20°C° 0 mm 2 mps 750 mmHg 80%
05:00 +21°C° 0 mm 2 mps 750 mmHg 78%
06:00 +23°C° 0 mm 2 mps 750 mmHg 75%
07:00 +25°C° 0 mm 2 mps 750 mmHg 68%
08:00 +26°C° 0 mm 2 mps 750 mmHg 61%
09:00 +28°C° 0 mm 2 mps 750 mmHg 53%
10:00 +29°C° 0 mm 2 mps 750 mmHg 49%
11:00 +30°C° 0 mm 2 mps 750 mmHg 45%
12:00 +31°C° 0 mm 2 mps 750 mmHg 41%
13:00 +32°C° 0 mm 2 mps 750 mmHg 41%
14:00 +32°C° 0 mm 2 mps 750 mmHg 41%
15:00 +32°C° 0 mm 2 mps 750 mmHg 40%
16:00 +31°C° 0 mm 1 mps 750 mmHg 46%
17:00 +30°C° 0 mm 1 mps 750 mmHg 52%
18:00 +29°C° 0 mm 1 mps 750 mmHg 57%
19:00 +27°C° 0 mm 1 mps 750 mmHg 62%
20:00 +26°C° 0 mm 1 mps 750 mmHg 66%
21:00 +25°C° 0 mm 1 mps 750 mmHg 70%
22:00 +24°C° 0 mm 1 mps 750 mmHg 71%
23:00 +23°C° 0 mm 1 mps 750 mmHg 72%

22 June, Tuesday

Time Temperature Precipitation Wind Pressure Humidity
00:00 +22°C° 0 mm 1 mps 750 mmHg 72%
01:00 +22°C° 0 mm 1 mps 750 mmHg 73%
02:00 +21°C° 0 mm 1 mps 751 mmHg 74%
03:00 +21°C° 0 mm 1 mps 751 mmHg 74%
04:00 +22°C° 0 mm 1 mps 751 mmHg 73%
05:00 +21°C° 0 mm 0 mps 751 mmHg 72%
06:00 +22°C° 0 mm 0 mps 751 mmHg 71%
07:00 +24°C° 0 mm 0 mps 751 mmHg 66%
08:00 +25°C° 0 mm 0 mps 751 mmHg 62%
09:00 +26°C° 0 mm 0 mps 752 mmHg 57%
10:00 +28°C° 0 mm 0 mps 752 mmHg 53%
11:00 +31°C° 0 mm 1 mps 752 mmHg 48%
12:00 +33°C° 0 mm 1 mps 752 mmHg 43%
13:00 +33°C° 0 mm 1 mps 752 mmHg 44%
14:00 +32°C° 0 mm 1 mps 751 mmHg 44%
15:00 +32°C° 0 mm 1 mps 751 mmHg 45%
16:00 +31°C° 0 mm 1 mps 751 mmHg 50%
17:00 +30°C° 0 mm 2 mps 751 mmHg 54%
18:00 +28°C° 0 mm 2 mps 751 mmHg 59%
19:00 +27°C° 0 mm 1 mps 751 mmHg 62%
20:00 +27°C° 0 mm 1 mps 751 mmHg 64%
21:00 +26°C° 0 mm 1 mps 751 mmHg 67%
22:00 +25°C° 0 mm 1 mps 752 mmHg 68%
23:00 +24°C° 0 mm 1 mps 752 mmHg 69%
Show more